Location: Asheville, NC
(35.6000°N, 82.5500°W)
Time: 10:50:25

Hubble Space Telescope - Pass Details

Date: 14 March 2018
Orbit: 537 x 541 km, 28.5° (Epoch: 20 March)

Event Time Altitude Azimuth Distance (km) Brightness Sun altitude
Rises 19:56:45 0° 241° (WSW) 2,673 5.5 -4.9°
Reaches altitude 10° 19:59:15 10° 229° (SW) 1,782 4.2 -5.4°
Maximum altitude 20:02:44 26° 171° (S) 1,067 2.2 -6.1°
Drops below altitude 10° 20:06:12 10° 114° (ESE) 1,783 2.8 -6.8°
Enters shadow 20:06:49 - 110° (ESE) 1,991 3.1 -6.9°
